{"data":{"norad_id":57075,"epoch":"2026-05-25T01:17:03.308064Z","epoch_age_seconds":63695,"freshness":"FRESH","line1":"1 57075U 23088AD  26145.05351051  .00000992  00000+0  45593-4 0  9992","line2":"2 57075  43.0067  24.4849 0001524 279.8012  80.2668 15.27579340162189","mean_motion":15.2757934,"eccentricity":0.0001524,"inclination_deg":43.0067,"raan_deg":24.4849,"arg_perigee_deg":279.8012,"mean_anomaly_deg":80.2668,"bstar":4.5593e-5,"rev_number":16218,"period_min":94.266789442177,"perigee_km":482.00542725558,"apogee_km":484.09671738002,"semimajor_km":6861.1880723178,"source":"CELESTRAK","updated_at":"2026-05-25T13:38:18.214499Z"}}